Regional Weather Roundup
Issued by NWS

Home | Current Version | Previous Version | Graphics & Text | Print | Product List | Glossary Off
Versions: 1 2 3 4 5 6 7 8 9 10 11 12 13 14 15 16 17 18 19 20 21 22 23 24 25 26 27 28 29 30 31 32 33 34 35 36 37 38 39 40 41 42 43 44 45 46 47 48 49 50

716
ASUS43 KTOP 270908
RWRKS

WEATHER ROUNDUP FOR KANSAS
NATIONAL WEATHER SERVICE GOODLAND KS
400 AM CDT THU APR 27 2017

NOTE:  "FAIR" INDICATES FEW OR NO CLOUDS BELOW 12,000 FEET WITH NO
SIGNIFICANT WEATHER AND/OR OBSTRUCTIONS TO VISIBILITY.

KSZ001>006-013>018-027>032-041>047-271000-
NORTHWEST KANSAS

CITY           SKY/WX    TMP DP  RH WIND       PRES   REMARKS
GOODLAND       CLEAR     35  29  78 S5        29.64F
HAYS           CLEAR     30  27  88 N3        29.72S
HILL CITY      PTCLDY    30  28  92 CALM      29.71F
RUSSELL        CLEAR     33  30  88 E6        29.70F
$$

KSZ061>065-074>080-084>089-271000-
SOUTHWEST KANSAS

CITY           SKY/WX    TMP DP  RH WIND       PRES   REMARKS
DODGE CITY     CLEAR     37  32  82 S9        29.70F
ELKHART          N/A     44  32  63 S8          N/A
GARDEN CITY    CLOUDY    40  31  70 S6        29.68F
GREAT BEND     CLEAR     32  30  92 CALM      29.72
LIBERAL        CLOUDY    42  37  82 CALM      29.70F
PRATT          CLEAR     38  32  81 SE3       29.71F
$$

KSZ066>073-081>083-090>101-271000-
SOUTHEAST KANSAS

CITY           SKY/WX    TMP DP  RH WIND       PRES   REMARKS
CHANUTE        CLEAR     40  37  89 NW5       29.71S
COFFEYVILLE    CLEAR     41  39  93 CALM      29.73S
HUTCHINSON     CLEAR     32  30  92 CALM      29.73F
MEDICINE LODGE   N/A     34  32  92 CALM      29.72F
NEWTON         CLEAR     37  33  85 NW3       29.73S
PARSONS        CLEAR     38  37  97 CALM      29.73S
WICHITA INTL   CLEAR     38  36  92 NW6       29.73S
WICHITA JABRA  CLEAR     38  35  89 NW6       29.73S
WICHITA MCCONL CLEAR     41  36  82 N5        29.72F
WINFIELD       CLEAR     38  36  92 CALM      29.74F
$$

KSZ007>012-019>026-033>040-048>060-102>105-271000-
NORTHEAST KANSAS

CITY           SKY/WX    TMP DP  RH WIND       PRES   REMARKS
CONCORDIA      CLEAR     33  30  88 W7        29.72S
EMPORIA        CLEAR     37  35  92 W7        29.70F
LAWRENCE       CLOUDY    44  35  70 NW9       29.70R
MANHATTAN      CLEAR     36  31  82 W5        29.71F
OLATHE IND     CLOUDY    43  35  73 NW9       29.69R
OLATHE EXE     CLOUDY    42  35  76 NW9       29.68R
SALINA         CLEAR     36  31  82 NW6       29.74S
TOPEKA BILLARD PTCLDY    44  35  70 NW8       29.70R
TOPEKA FORBES  CLOUDY    44  34  67 NW9       29.69R
$$




USA.gov is the U.S. government's official web portal to all federal, state and local government web resources and services.